USA 283

Last updated on Sun Jun 29 2025 00:02:47 GMT+0000 (Coordinated Universal Time)

1 43339U 18036A 25179.46051396 -.00000324 00000+0 00000+0 0 9996 2 43339 0.0416 192.1819 0000498 342.4491 42.0064 1.00265239 3854
UTC large
Height (km)
Speed (km/s)
/
Latitude / Longitude
Inclination (degrees)
Orbital Period (minutes)
Azimuth
Elevation
Range (km)
Doppler Factor

Next 0 passes for location: London (51.5072 / 0.1276)

Sorry there are no passes over London.